Regional Weather Roundup
Issued by NWS Midland/Odessa, TX

Skip options and go directly to product.
Home | Oldest Version | Next Version | Current Version | All | Text Only | Save Text | Print | Product List | Glossary On

Skip product version selection by date and time.   
666
ASUS44 KMAF 310101
RWRMAF
MIDLAND AREA WEATHER ROUNDUP
NATIONAL WEATHER SERVICE MIDLAND TX
800 PM CDT MON MAY 30 2016

...IN SOUTHWEST TEXAS AND SOUTHEAST NEW MEXICO...

CITY           SKY/WX    TMP DP  RH WIND       PRES   REMARKS
ALPINE         CLOUDY    79  49  34 E8        30.05S
ANDREWS        FAIR      86  52  30 SW12      29.89S
ARTESIA        DRIZZLE   72  52  49 NW15G36   30.01R
BIG SPRING     CLOUDY    63  58  83 SE32      29.92F
CARLSBAD       LGT RAIN  68  54  60 W23G36    29.98R
DRYDEN           N/A     76  68  76 CALM      29.92R
FORT STOCKTON  NOT AVBL
GUAD PASS      NOT AVBL
HOBBS          CLOUDY    81  54  39 S9        29.93R
MARFA          CLOUDY    74  53  48 NE10      30.02S
MIDLAND AIRPK  CLOUDY    75  62  64 E16G30    29.91R
MIDLAND INTL   PTCLDY    83  64  52 S25       29.90R
ODESSA         CLOUDY    83  64  52 S21       29.91R
PECOS          CLOUDY    83  49  30 S7        29.88S
PRESIDIO       FAIR      73  66  78 NE10      29.89F
SEMINOLE       CLEAR     84  53  33 SW9       29.90F
SNYDER         TSTM      72  70  91 S13G20    29.93R
WINK           CLOUDY    84  50  30 S20       29.87R
$$
...OTHER STATIONS IN TEXAS...

CITY           SKY/WX    TMP DP  RH WIND       PRES   REMARKS
ABILENE        CLOUDY    80  70  71 S9        29.91R
AMARILLO       CLOUDY    77  61  57 SE16      29.91F
AUSTIN         CLOUDY    83  70  64 SE6       29.89F
BROWNSVILLE    PTCLDY    80  75  84 SE12      29.89R
CORPUS CHRISTI CLOUDY    82  74  76 SE7       29.89R
DALLAS FTW     PTCLDY    80  64  58 SE6       29.89R
DEL RIO        MOCLDY    80  66  62 S12       29.89R
EL PASO        PTSUNNY   81  43  26 E9        29.91F
HOUSTON INT    PTCLDY    79  71  76 SE10      29.91R
LUBBOCK        CLOUDY    79  65  62 SE15      29.91R
SAN ANGELO     PTCLDY    79  66  64 S8        29.91R
SAN ANTONIO    CLOUDY    80  66  62 SE9       29.90S
WACO           CLEAR     80  66  62 SE6       29.90R
WICHITA FALLS  NOT AVBL
$$
...OTHER LOCATIONS IN NEW MEXICO...

CITY           SKY/WX    TMP DP  RH WIND       PRES   REMARKS
ALAMAGORDO     PTSUNNY   79  37  22 CALM      29.92F
ALBUQUERQUE    PTSUNNY   80  26  13 S13       29.95F
CANNON AFB     PTSUNNY   80  46  31 S21G26    29.94R
CLOVIS         MOSUNNY   79  52  38 S16       29.94R
HOLLOMAN AFB   PTSUNNY   78  40  25 E7        29.90F
ROSWELL        LGT RAIN  74  51  44 SW17      29.97R
RUIDOSO          N/A     61  41  48 N9G16     30.13F
SANTA FE       MOSUNNY   78  15   9 S8        29.99F
TRUTH OR CONSE PTSUNNY   78  43  28 S7        29.93F
TUCUMCARI      MOSUNNY   86  36  16 S13       29.86F
$$

USA.gov is the U.S. government's official web portal to all federal, state and local government web resources and services.